カタログに戻る

DMSP 5D-2 F13 DEB

運用中SSO
NORAD 42268·DEBRIS·🇺🇸 United States

打ち上げ Mar 24, 1995 から Vandenberg Space Force Base

Loading…

次のパス (今後24時間)

TLE

最新Source: Space-Track

元期: Sep 13, 2026, 19:47 UTC

1 42268U 95015GJ  26256.82465000  .00003031  00000-0  16905-2 0  9998
2 42268  98.7260  92.7733 0116167 101.4769 259.9473 14.08235993579764

AllMySatでDMSP 5D-2 F13 DEBをリアルタイム追跡

Download on the App Store